Wind_Speed
11 12 12 12 12 12 12 13 13 13 14 15 15 16 16 17 17 17 18 18 19 19 19 20 21 22 23 24 25 26 27 28 30 31 32 31 32 34
14 15 15 15 15 15 15 16 15 16 16 17 17 18 19 19 19 19 19 20 20 20 20 21 22 22 23 25 26 27 28 30 31 32 33 34 34 35
17 17 17 18 18 18 18 18 18 18 18 19 19 20 21 21 21 21 22 22 22 22 23 23 23 24 25 25 26 27 29 30 32 33 34 35 36 37
19 20 20 21 21 21 21 21 21 21 21 22 22 22 23 23 23 23 24 24 24 24 24 25 25 25 26 27 27 28 29 31 32 33 35 36 37 38
22 23 23 23 23 23 24 24 24 24 24 25 25 25 25 25 25 25 26 26 26 26 26 27 27 27 28 28 29 29 30 32 33 33 34 36 37 39
25 25 26 25 25 26 26 26 26 27 27 27 28 28 28 28 28 28 28 28 29 29 29 29 29 29 29 30 31 31 32 32 33 35 36 36 37 39
28 28 28 28 28 28 28 28 29 29 30 30 30 30 31 31 30 30 30 30 31 31 31 31 31 31 32 32 32 33 33 33 34 35 36 37 38 39
31 31 31 31 32 31 31 31 31 32 32 33 33 33 33 33 33 33 33 33 32 34 34 33 34 33 34 34 34 34 35 35 36 36 37 38 39 40
33 34 33 33 34 33 34 34 34 35 36 36 35 35 35 36 36 36 36 36 36 37 36 35 36 36 36 36 36 37 37 37 38 38 38 39 40 41
35 36 36 35 35 36 36 36 37 37 37 38 37 37 38 39 40 40 40 40 39 40 40 38 38 38 38 39 39 39 39 39 39 40 40 40 40 41
37 37 37 37 37 37 38 38 38 38 40 40 40 40 41 41 42 43 43 43 42 42 43 42 41 41 41 41 41 41 41 41 41 41 41 42 42 42
38 38 38 39 39 40 40 40 41 41 42 42 42 43 44 45 46 46 47 47 46 44 45 46 45 45 43 43 43 44 43 43 43 42 42 42 43 43
39 39 40 40 41 41 42 43 44 44 43 44 45 46 47 48 48 49 49 49 49 48 48 49 48 48 47 45 45 46 46 45 44 44 44 44 44 43
40 40 41 42 42 43 44 44 45 45 46 47 48 49 49 50 51 52 52 52 52 51 51 52 51 51 51 49 47 47 47 46 46 45 45 45 45 44
41 42 43 44 44 45 45 46 47 48 49 50 50 51 52 52 53 54 54 54 54 55 54 54 54 53 52 51 49 48 48 47 46 45 45 45 45 45
43 44 45 46 47 47 48 49 50 51 52 53 53 54 54 55 55 56 56 57 57 56 55 55 54 54 53 51 50 48 47 46 45 45 44 44 44 45
45 45 46 47 48 49 51 52 54 54 55 56 57 57 57 57 57 58 58 57 56 55 54 54 54 53 53 51 49 48 48 46 46 46 45 44 44 44
47 48 49 50 52 53 54 55 56 57 58 59 59 59 59 58 58 57 57 57 56 55 54 52 52 52 51 50 49 48 47 47 46 46 45 44 43 44
51 52 53 54 55 56 57 58 58 59 59 59 59 58 58 57 57 56 55 55 54 53 51 51 51 50 50 48 47 47 47 46 45 45 44 43 43 43
54 54 55 56 56 57 58 58 58 58 57 57 57 56 55 55 54 53 52 51 50 50 49 49 49 49 48 46 44 43 44 43 43 43 43 43 42 42
55 55 55 56 56 56 56 55 54 53 53 53 53 52 51 50 50 48 47 47 47 46 46 45 44 45 45 44 41 38 40 41 40 40 40 40 40 40
54 54 53 53 53 52 51 50 50 49 49 48 47 45 45 45 44 43 43 42 42 43 42 41 40 40 40 40 38 36 36 37 38 37 37 37 37 37
51 51 50 49 49 48 47 47 45 44 43 42 41 41 41 40 39 38 38 38 38 38 38 37 37 36 36 36 35 34 34 35 35 35 34 34 34 33
Wind_Direction
291 294 295 297 296 295 296 298 299 300 301 301 300 299 298 297 297 297 295 292 290 287 283 279 275 272 268 265 263 261 258 257 255 254 252 252 253 252
288 289 290 291 291 291 291 292 294 295 296 297 297 296 295 295 295 294 293 292 291 289 286 282 278 275 272 268 265 263 261 258 257 256 254 254 253 252
285 285 286 287 288 288 289 290 291 292 293 293 293 293 292 292 292 291 291 290 289 288 287 284 281 278 275 273 269 266 263 261 259 257 256 255 254 253
283 283 284 286 286 286 287 288 289 290 291 292 292 292 291 290 290 290 289 288 287 287 286 285 283 280 277 275 272 269 265 263 261 259 257 256 254 253
282 283 283 284 285 285 286 286 286 287 288 289 290 289 289 288 287 288 288 286 285 285 285 285 284 282 279 276 274 272 268 266 263 261 260 258 257 255
280 281 281 282 283 284 284 284 284 285 286 287 287 286 286 286 285 285 285 285 285 285 284 283 283 282 280 278 276 274 272 270 267 264 262 261 259 258
279 280 280 280 281 282 283 283 284 285 286 286 286 285 285 284 283 283 283 283 283 283 283 283 283 282 281 279 277 275 273 272 270 267 264 262 261 260
278 278 278 278 279 280 282 283 283 285 286 286 285 283 283 283 282 282 282 282 282 281 281 282 282 281 280 279 278 277 275 273 272 270 268 265 262 260
277 278 278 278 279 279 281 282 283 284 285 285 284 282 281 282 282 281 281 281 280 280 280 280 280 280 280 279 278 277 275 274 273 271 269 267 264 261
278 278 277 276 276 278 280 282 284 284 284 284 283 282 281 281 281 281 281 280 280 280 279 278 278 278 278 278 277 276 276 275 273 271 269 267 266 264
278 278 277 275 276 277 279 281 283 282 282 282 282 281 281 281 281 281 280 280 280 279 279 279 278 276 276 276 276 276 276 276 274 272 270 268 266 265
277 277 276 276 277 278 280 281 281 281 281 280 281 281 281 281 280 280 280 279 279 278 278 278 277 276 275 275 275 275 275 274 273 272 270 268 267 265
278 277 276 278 279 280 280 281 281 280 280 280 281 281 281 281 280 279 279 278 278 277 276 277 277 276 275 274 274 275 274 273 272 271 269 267 266 265
277 277 278 279 280 280 281 282 282 281 281 281 282 282 281 280 279 278 278 277 277 276 276 275 275 275 275 274 273 273 273 273 271 270 268 266 264 263
277 278 280 280 280 281 281 282 282 283 283 282 282 281 281 280 279 278 277 277 276 276 276 275 275 274 274 273 272 272 271 271 271 269 267 265 263 262
278 279 280 281 281 281 281 282 283 283 283 283 282 282 281 280 280 278 277 276 276 275 275 274 273 273 273 272 271 271 270 269 268 268 266 264 263 262
280 280 281 282 283 283 283 283 284 284 284 284 283 283 282 280 279 278 276 276 275 274 273 272 272 272 272 271 270 268 267 266 266 266 265 263 262 262
282 282 283 283 284 284 284 284 284 284 284 283 283 282 281 280 279 277 276 275 275 274 272 270 269 269 269 268 268 266 265 264 264 264 263 262 261 261
283 284 284 284 284 285 285 285 285 285 285 284 284 283 281 280 278 277 276 275 274 272 271 269 268 268 268 267 266 266 265 263 263 262 262 262 261 260
284 284 284 285 286 286 286 286 286 286 286 285 284 283 282 280 279 276 274 273 272 271 270 270 268 267 267 266 264 263 264 263 262 262 261 262 262 261
285 285 286 286 287 287 287 287 287 286 286 285 284 283 281 280 278 276 274 272 270 269 269 269 268 267 266 265 262 260 260 261 261 261 261 262 262 262
285 285 286 287 288 288 288 288 288 287 287 286 285 283 281 281 279 276 274 273 271 269 269 268 266 265 264 262 260 259 259 260 262 262 262 263 264 261
286 286 287 288 289 289 289 290 290 289 289 288 286 284 283 282 279 277 276 274 272 270 268 265 264 263 262 261 261 260 260 261 261 262 263 263 263 262
Height
5869 5868 5867 5866 5865 5864 5863 5862 5861 5859 5858 5856 5854 5853 5851 5850 5848 5847 5845 5843 5842 5840 5839 5838 5838 5837 5836 5836 5836 5836 5837 5837 5838 5839 5840 5841 5843 5844
5864 5864 5863 5862 5860 5859 5858 5857 5856 5854 5853 5851 5850 5848 5846 5844 5843 5841 5840 5838 5836 5835 5833 5832 5831 5830 5830 5829 5829 5829 5829 5829 5830 5831 5831 5833 5834 5835
5859 5858 5857 5856 5855 5854 5852 5851 5850 5848 5847 5846 5844 5842 5841 5839 5837 5835 5833 5832 5830 5829 5827 5826 5824 5823 5823 5822 5821 5821 5821 5821 5821 5822 5822 5823 5825 5826
5854 5853 5852 5850 5849 5848 5846 5845 5844 5842 5841 5839 5838 5836 5834 5832 5830 5829 5827 5825 5823 5822 5820 5819 5817 5816 5815 5814 5813 5812 5812 5812 5812 5812 5813 5814 5815 5816
5848 5847 5845 5844 5843 5841 5840 5838 5837 5835 5834 5832 5830 5828 5827 5825 5823 5821 5820 5818 5816 5814 5813 5811 5809 5808 5806 5805 5804 5803 5803 5803 5803 5803 5803 5804 5804 5805
5841 5840 5838 5837 5835 5834 5832 5831 5829 5828 5826 5825 5823 5821 5819 5817 5815 5813 5812 5810 5808 5806 5804 5802 5801 5799 5798 5796 5795 5794 5794 5793 5793 5793 5793 5793 5794 5794
5833 5832 5830 5829 5827 5826 5824 5823 5821 5819 5818 5816 5814 5812 5810 5808 5806 5805 5803 5801 5799 5797 5795 5794 5792 5790 5788 5787 5786 5784 5784 5783 5782 5782 5782 5782 5783 5783
5824 5823 5821 5820 5819 5817 5816 5814 5812 5810 5808 5806 5804 5803 5801 5799 5797 5795 5793 5791 5790 5788 5786 5784 5782 5780 5778 5777 5775 5774 5773 5772 5771 5771 5771 5771 5771 5772
5814 5813 5812 5811 5809 5808 5806 5805 5803 5800 5798 5796 5794 5792 5790 5788 5786 5784 5782 5780 5779 5776 5775 5773 5771 5770 5768 5766 5765 5763 5762 5761 5760 5759 5759 5759 5759 5759
5805 5803 5802 5801 5799 5798 5796 5794 5792 5790 5787 5784 5783 5781 5779 5776 5774 5772 5770 5768 5767 5764 5762 5761 5759 5758 5756 5754 5753 5751 5750 5749 5748 5747 5747 5747 5747 5747
5794 5793 5791 5790 5788 5786 5785 5783 5781 5778 5775 5773 5771 5768 5766 5764 5761 5759 5757 5755 5754 5752 5749 5747 5747 5745 5744 5742 5740 5738 5737 5736 5735 5735 5734 5734 5734 5734
5783 5782 5780 5779 5777 5775 5773 5771 5768 5766 5763 5760 5758 5755 5753 5750 5747 5744 5742 5740 5739 5739 5736 5733 5732 5730 5730 5729 5727 5725 5724 5723 5722 5721 5721 5720 5720 5721
5772 5770 5769 5767 5764 5762 5760 5757 5755 5752 5749 5747 5744 5742 5738 5735 5732 5729 5726 5724 5723 5723 5721 5718 5717 5715 5714 5715 5713 5711 5710 5709 5708 5707 5707 5707 5707 5707
5760 5758 5756 5754 5751 5749 5746 5743 5740 5738 5735 5733 5730 5727 5723 5720 5717 5713 5710 5708 5706 5706 5704 5702 5701 5699 5698 5699 5698 5697 5695 5694 5693 5693 5693 5693 5693 5694
5748 5746 5743 5740 5738 5735 5732 5729 5726 5723 5720 5717 5714 5710 5707 5703 5700 5697 5694 5691 5689 5688 5687 5685 5683 5682 5681 5682 5682 5681 5680 5679 5678 5678 5678 5678 5679 5680
5734 5732 5729 5726 5723 5720 5717 5714 5710 5706 5703 5699 5696 5693 5689 5685 5682 5679 5676 5673 5671 5671 5669 5667 5665 5664 5664 5665 5665 5665 5664 5664 5664 5663 5663 5664 5665 5666
5720 5718 5715 5711 5708 5705 5702 5698 5693 5689 5685 5681 5677 5674 5670 5667 5663 5659 5656 5654 5653 5653 5652 5649 5647 5646 5647 5647 5648 5649 5648 5649 5649 5649 5649 5650 5651 5652
5705 5702 5699 5695 5692 5688 5685 5681 5676 5671 5666 5662 5658 5654 5650 5647 5643 5640 5637 5635 5634 5633 5633 5632 5630 5629 5629 5630 5631 5632 5632 5633 5633 5634 5634 5636 5637 5638
5689 5686 5682 5678 5674 5670 5666 5662 5657 5652 5647 5642 5638 5634 5630 5626 5624 5621 5619 5616 5615 5615 5614 5614 5612 5612 5612 5615 5616 5615 5616 5617 5618 5619 5620 5621 5623 5624
5672 5668 5664 5660 5656 5652 5647 5643 5638 5633 5628 5623 5618 5614 5610 5607 5605 5602 5600 5599 5598 5597 5597 5597 5596 5596 5596 5598 5600 5602 5601 5601 5603 5605 5606 5607 5608 5610
5654 5650 5646 5642 5637 5633 5629 5624 5619 5614 5609 5604 5600 5596 5592 5589 5586 5584 5583 5582 5581 5581 5581 5582 5581 5581 5581 5582 5585 5588 5588 5588 5589 5591 5592 5593 5595 5596
5637 5633 5628 5624 5620 5615 5611 5606 5601 5597 5592 5587 5583 5579 5576 5573 5570 5569 5567 5566 5566 5566 5567 5567 5567 5567 5568 5569 5571 5574 5576 5576 5577 5578 5580 5581 5581 5583
5619 5615 5611 5607 5603 5599 5594 5590 5585 5581 5576 5572 5568 5565 5562 5559 5557 5555 5554 5553 5553 5553 5553 5554 5555 5555 5556 5557 5559 5562 5564 5565 5566 5567 5569 5569 5570 5571